This demonstration page uses our WeatherBlox Daily Observations layout. Learn more.

Left ArrowRight Arrow

Hourly Observations for May 26, 2022

Temp ( °F °C ) Dew Point ( °F °C ) Humidity (%) Winds ( mph kmh ) Pressure ( in mb ) Visibility ( mi km ) Precip ( " mm )
12:56 am 00:56 Cloudy with Mist and Fog 51 10.6 49 9.2 91 91 N 12 19 29.78 1009 5 8 0.01 0.25
1:56 am 01:56 Cloudy with Light Showers 51 10.7 48 9.1 90 90 N 12 19 29.78 1009 10 16 0.00 0.00
2:56 am 02:56 Cloudy 51 10.8 48 9.1 89 89 N 8 13 29.78 1008 10 16 0.00 0.00
3:56 am 03:56 Cloudy 51 10.8 48 9.1 89 89 N 7 11 29.80 1009 10 16 0.00 0.00
4:56 am 04:56 Mostly Cloudy with Light Rain 51 10.6 49 9.4 92 92 N 9 15 29.81 1009 6 10 0.02 0.51
5:56 am 05:56 Cloudy 51 10.6 48 8.9 89 89 N 6 9 29.83 1010 10 16 0.00 0.00
6:56 am 06:56 Cloudy 51 10.5 48 8.8 89 89 N 10 17 29.84 1010 7 11 0.00 0.00
7:56 am 07:56 Cloudy 52 11 48 9 88 88 N 12 19 29.87 1012 10 16 0.00 0.00
8:56 am 08:56 Mostly Cloudy 52 11 48 9 88 88 N 12 19 29.85 1011 10 16 0.00 0.00
9:56 am 09:56 Cloudy 52 10.9 47 8.1 83 83 N 13 20 29.91 1013 10 16 0.00 0.00
10:56 am 10:56 Mostly Cloudy 52 11.1 46 8 81 81 N 15 24 29.92 1013 10 16 0.00 0.00
11:56 am 11:56 Mostly Cloudy 53 11.4 46 7.9 79 79 N 10 17 29.92 1013 10 16 0.00 0.00
12:56 pm 12:56 Cloudy 53 11.6 46 7.9 78 78 N 12 19 29.93 1013 10 16 0.00 0.00
1:56 pm 13:56 undefined 53 11.9 46 7.8 76 76 N 13 20 29.93 1013 10 16 0.00 0.00
2:56 pm 14:56 Mostly Cloudy 56 13.3 47 8.1 71 71 N 13 20 29.91 1013 10 16 0.00 0.00
3:56 pm 15:56 Cloudy 57 13.9 47 8.5 70 70 N 10 17 29.93 1013 10 16 0.00 0.00
4:56 pm 16:56 Partly Cloudy 61 16 48 9 63 63 N 13 20 29.92 1013 10 16 0.00 0.00
5:56 pm 17:56 Sunny 63 17.3 49 9.5 60 60 N 7 11 29.90 1013 10 16 0.00 0.00
6:56 pm 18:56 Sunny 63 17.2 49 9.6 61 61 ENE 5 7 29.90 1013 10 16 0.00 0.00
7:56 pm 19:56 Sunny 62 16.7 50 9.9 64 64 Calm 29.92 1013 10 16 0.00 0.00
8:56 pm 20:56 Clear 58 14.3 50 9.9 75 75 Calm 29.90 1013 10 16 0.00 0.00
9:56 pm 21:56 Clear 54 12.3 50 10 86 86 Calm 29.95 1014 10 16 0.00 0.00
10:56 pm 22:56 Clear 53 11.4 50 10 91 91 Calm 29.97 1015 10 16 0.00 0.00
11:56 pm 23:56 Clear 51 10.4 49 9.5 94 94 Calm 29.96 1015 9 14 0.00 0.00

Powered by AerisWeather